Weather History for Adana, Turkey

Change the Weather History Date:

Thursday, March 27, 2014

  Actual Average Record
Temperature  
Mean Temperature 61 °F -  
Max Temperature 72 °F 71 °F 80 °F (2004)
Min Temperature 50 °F 50 °F 37 °F (1999)
Degree Days  
Heating Degree Days 4    
Growing Degree Days 11 (Base 50)    
Moisture  
Dew Point 49 °F    
Average Humidity 68    
Maximum Humidity 94    
Minimum Humidity 31    
Precipitation  
Precipitation 0.00 in 0.08 in - ()
Sea Level Pressure  
Sea Level Pressure 30.09 in    
Wind  
Wind Speed 4 mph ()    
Max Wind Speed 12 mph    
Max Gust Speed -    
Visibility 4.9 miles    
Events      
Averages and records for this station are not official NWS values.
T = Trace of Precipitation, MM = Missing Value Source: Averaged Metar Reports

Daily Weather History Graph

Daily Weather History Graph

Search for Another Location

Airport:

Trip Planner

Search our weather history database for the weather conditions in past years. The results will help you decide how hot, cold, wet, or windy it might be!

Date:

Astronomy

Mar. 27, 2014 Rise Set
Actual Time 5:32 AM EET 5:56 PM EET
Civil Twilight 5:06 AM EET 6:22 PM EET
Nautical Twilight 4:35 AM EET 6:53 PM EET
Astronomical Twilight 4:04 AM EET 7:24 PM EET
Moon 3:04 AM EET (3/27) 2:24 PM EET (3/27)
Length of Visible Light 13h 16m
Length of Day
12h 24m
Waning Crescent, 15% of the Moon is Illuminated
Mar 27
Waning Crescent
Mar 30
New
Apr 7
First Quarter
Apr 15
Full
Apr 22
Last Quarter

Hourly Weather History & Observations

Time (EET) Temp. Dew Point Humidity Pressure Visibility Wind Dir Wind Speed Gust Speed Precip Events Conditions
12:20 AM 53.6 °F 50.0 °F 88% 30.09 in 3.1 mi Calm Calm - N/A   Partly Cloudy
12:50 AM 55.4 °F 50.0 °F 82% 30.09 in 3.1 mi NE 4.6 mph - N/A   Partly Cloudy
1:20 AM 53.6 °F 48.2 °F 82% 30.09 in 3.1 mi NE 4.6 mph - N/A   Partly Cloudy
1:50 AM 51.8 °F 48.2 °F 88% 30.09 in 3.1 mi NE 3.5 mph - N/A   Partly Cloudy
2:00 AM 52 °F 48 °F 81% 30.10 in 3 mi NE 3.5 mph - -   Mist
2:20 AM 51.8 °F 48.2 °F 88% 30.09 in 3.1 mi NE 3.5 mph - N/A   Partly Cloudy
2:50 AM 51.8 °F 48.2 °F 88% 30.09 in 3.1 mi NNE 3.5 mph - N/A   Partly Cloudy
3:20 AM 50.0 °F 48.2 °F 94% 30.06 in 3.1 mi NE 6.9 mph - N/A   Partly Cloudy
3:50 AM 51.8 °F 48.2 °F 88% 30.06 in 3.1 mi NE 4.6 mph - N/A   Partly Cloudy
4:20 AM 51.8 °F 48.2 °F 88% 30.06 in 3.1 mi NE 5.8 mph - N/A   Partly Cloudy
4:50 AM 51.8 °F 48.2 °F 88% 30.09 in 3.1 mi NE 5.8 mph - N/A   Partly Cloudy
5:00 AM 51 °F 47 °F 83% 30.10 in 3 mi NE 5.8 mph - -   Mist
5:20 AM 51.8 °F 48.2 °F 88% 30.09 in 3.1 mi Variable 3.5 mph - N/A   Scattered Clouds
5:50 AM 51.8 °F 48.2 °F 88% 30.09 in 3.1 mi North 3.5 mph - N/A   Scattered Clouds
6:20 AM 53.6 °F 48.2 °F 82% 30.09 in 3.1 mi Variable 2.3 mph - N/A   Partly Cloudy
6:50 AM 57.2 °F 50.0 °F 77% 30.12 in 3.1 mi North 3.5 mph - N/A   Partly Cloudy
7:20 AM 59.0 °F 51.8 °F 77% 30.12 in 4.3 mi NNE 4.6 mph - N/A   Partly Cloudy
7:50 AM 60.8 °F 51.8 °F 72% 30.12 in 6.2 mi NE 4.6 mph - N/A   Partly Cloudy
8:00 AM 61 °F 51 °F 62% 30.15 in 6 mi NE 4.6 mph - -   Scattered Clouds
8:20 AM 62.6 °F 51.8 °F 68% 30.15 in 6.2 mi NE 3.5 mph - N/A   Partly Cloudy
8:50 AM 64.4 °F 50.0 °F 59% 30.15 in 6.2 mi Variable 3.5 mph - N/A   Partly Cloudy
9:20 AM 66.2 °F 50.0 °F 56% 30.12 in 6.2 mi Variable 3.5 mph - N/A   Scattered Clouds
9:50 AM 66.2 °F 50.0 °F 56% 30.12 in 6.2 mi Variable 4.6 mph - N/A   Scattered Clouds
10:20 AM 66.2 °F 48.2 °F 52% 30.12 in 6.2 mi Variable 2.3 mph - N/A   Scattered Clouds
10:50 AM 68.0 °F 44.6 °F 43% 30.12 in 6.2 mi Variable 3.5 mph - N/A   Scattered Clouds
11:00 AM 68 °F 44 °F 31% 30.13 in 6 mi ESE 3.5 mph - -   Partly Cloudy
11:20 AM 68.0 °F 46.4 °F 46% 30.12 in 6.2 mi Variable 5.8 mph - N/A   Scattered Clouds
11:50 AM 68.0 °F 46.4 °F 46% 30.09 in 6.2 mi SW 4.6 mph - N/A   Scattered Clouds
12:20 PM 71.6 °F 48.2 °F 43% 30.09 in 6.2 mi Variable 4.6 mph - N/A   Scattered Clouds
12:50 PM 69.8 °F 46.4 °F 43% 30.06 in 6.2 mi SSW 5.8 mph - N/A   Scattered Clouds
1:20 PM 71.6 °F 46.4 °F 41% 30.06 in 6.2 mi Variable 4.6 mph - N/A   Scattered Clouds
1:50 PM 69.8 °F 46.4 °F 43% 30.06 in 6.2 mi SSW 9.2 mph - N/A   Scattered Clouds
2:00 PM 69 °F 47 °F 35% 30.08 in 6 mi SSW 9.2 mph - -   Partly Cloudy
2:20 PM 71.6 °F 48.2 °F 43% 30.06 in 6.2 mi SSW 10.4 mph - N/A   Scattered Clouds
2:50 PM 69.8 °F 50.0 °F 49% 30.04 in 6.2 mi SSW 9.2 mph - N/A   Scattered Clouds
3:20 PM 69.8 °F 48.2 °F 46% 30.06 in 6.2 mi SSW 11.5 mph - N/A   Scattered Clouds
3:50 PM 69.8 °F 50.0 °F 49% 30.06 in 6.2 mi SSW 11.5 mph - N/A   Scattered Clouds
4:20 PM 68.0 °F 48.2 °F 49% 30.06 in 6.2 mi SSW 10.4 mph - N/A   Scattered Clouds
4:50 PM 66.2 °F 50.0 °F 56% 30.06 in 6.2 mi SSW 11.5 mph - N/A   Partly Cloudy
5:00 PM 67 °F 49 °F 41% 30.07 in 6 mi SSW 11.5 mph - -   Scattered Clouds
5:20 PM 64.4 °F 50.0 °F 59% 30.06 in 6.2 mi SSW 11.5 mph - N/A   Partly Cloudy
5:50 PM 62.6 °F 48.2 °F 59% 30.06 in 6.2 mi SSW 8.1 mph - N/A   Partly Cloudy
6:20 PM 60.8 °F 50.0 °F 68% 30.06 in 6.2 mi SSW 6.9 mph - N/A   Partly Cloudy
6:50 PM 59.0 °F 50.0 °F 72% 30.06 in 6.2 mi SSW 4.6 mph - N/A   Partly Cloudy
7:20 PM 59.0 °F 50.0 °F 72% 30.09 in 6.2 mi SSW 3.5 mph - N/A   Partly Cloudy
7:50 PM 59.0 °F 51.8 °F 77% 30.09 in 6.2 mi Calm Calm - N/A   Partly Cloudy
8:00 PM 58 °F 51 °F 70% 30.10 in 6 mi Calm Calm - -   Scattered Clouds
8:20 PM 57.2 °F 51.8 °F 82% 30.09 in 6.2 mi SW 3.5 mph - N/A   Partly Cloudy
8:50 PM 57.2 °F 51.8 °F 82% 30.09 in 6.2 mi Calm Calm - N/A   Partly Cloudy
9:20 PM 55.4 °F 50.0 °F 82% 30.09 in 6.2 mi Calm Calm - N/A   Partly Cloudy
9:50 PM 55.4 °F 50.0 °F 82% 30.09 in 3.1 mi Calm Calm - N/A   Partly Cloudy
10:20 PM 57.2 °F 50.0 °F 77% 30.09 in 3.1 mi ESE 3.5 mph - N/A   Partly Cloudy
10:50 PM 55.4 °F 50.0 °F 82% 30.09 in 3.1 mi East 4.6 mph - N/A   Partly Cloudy
11:00 PM 55 °F 50 °F 78% 30.10 in 3 mi East 4.6 mph - -   Mist
11:20 PM 55.4 °F 51.8 °F 88% 30.09 in 3.1 mi East 3.5 mph - N/A   Partly Cloudy
11:50 PM 55.4 °F 50.0 °F 82% 30.09 in 3.1 mi ESE 4.6 mph - N/A   Partly Cloudy